Weather Roundup
Issued by NWS

Home | Current Version | Previous Version | Text Only | Print | Product List | Glossary On
Versions: 1 2 3 4 5 6 7 8 9 10 11 12 13 14 15 16 17 18 19 20 21 22 23 24 25 26 27 28 29 30 31 32 33 34 35 36 37 38 39 40 41 42 43 44 45 46 47 48 49 50
504
NZUS93 KARX 171059
HRRWXR

CURRENT HOURLY OBSERVATIONS ACROSS
MUCH OF THE UPPER MISSISSIPPI VALLEY
NATIONAL WEATHER SERVICE LA CROSSE WI
600 AM CDT TUE OCT 17 2017


...SOUTHEAST MINNESOTA...


CITY           SKY/WX    TMP DP  RH WIND       PRES   REMARKS
ROCHESTER      CLEAR     47  40  76 SW13      30.04R
ROCHESTER/MAYO FAIR      51  39  64 S6        30.03S
WINONA         CLEAR     52  41  66 CALM      30.04R
AUSTIN         CLEAR     43  37  81 CALM      30.05R
ALBERT LEA     CLEAR     52  43  71 SW7       30.04S
DODGE CENTER   CLEAR     46  39  76 SW7       30.03S
PRESTON        CLEAR     48  39  70 SW10      30.05R
OWATONNA       CLEAR     46  39  76 S5        30.02S
FARIBAULT      CLEAR     46  41  81 S6        30.01F
$$

...ELSEWHERE IN MINNESOTA...


CITY           SKY/WX    TMP DP  RH WIND       PRES   REMARKS
MINNEAPOLIS    PTCLDY    49  41  74 SW3       30.00R
INTNL FALLS    CLEAR     31  28  89 CALM      29.90R
DULUTH         CLOUDY    46  38  73 NW6       29.95R
RED WING       CLEAR     43  37  81 CALM      30.00R
REDWOOD FALLS  CLEAR     45  37  73 SW5       29.99S
MANKATO        CLEAR     45  39  79 S7        30.02R
WORTHINGTON    CLEAR     48  39  71 SW10      30.04S
FAIRMONT       CLEAR     47  40  76 SW6       30.03S
$$

...SOUTHWEST WISCONSIN...


CITY           SKY/WX    TMP DP  RH WIND       PRES   REMARKS
LA CROSSE      CLEAR     51  42  71 S6        30.04R
PRAIRIE DU CHI CLEAR     54  39  56 CALM      30.09R
BOSCOBEL       CLEAR     42  39  89 CALM      30.09R
LONE ROCK      NOT AVBL
PLATTEVILLE    CLEAR     47  41  80 S8        30.12S
FORT MC COY    CLEAR     50  40  68 SW3       30.05R
MAUSTON-NEW LI SUNNY     52  40  62 SW8       30.03R
VIROQUA        FAIR      49  41  73 CALM      30.06R
WIS DELLS      CLEAR     50  38  62 SW6       30.06F
$$

...ELSEWHERE IN WISCONSIN...


CITY           SKY/WX    TMP DP  RH WIND       PRES   REMARKS
MILWAUKEE      PTCLDY    50  39  66 SW14      30.11S
MADISON        CLEAR     52  39  61 SW8       30.09R
GREEN BAY      CLEAR     48  41  76 S6        30.01S
EAU CLAIRE     NOT AVBL
BLACK RVR FLS  FAIR      38  38  99 S3        30.02R
MEDFORD        CLEAR     43  36  76 SW5       30.00R
WAUSAU         CLOUDY    45  37  73 S5        29.99S
WIS RAPIDS     CLEAR     45  38  76 SW7       30.03R
MARSHFIELD     CLEAR     45  36  70 SW6       30.00S
RICE LAKE      CLEAR     37  36  98 CALM      30.01R
$$

...NORTHEAST IOWA...


CITY           SKY/WX    TMP DP  RH WIND       PRES   REMARKS
WATERLOO       CLEAR     49  40  71 SW7       30.09R
DUBUQUE        CLOUDY    47  40  76 SW14      30.12S
DECORAH        CLEAR     50  41  71 VRB7G13   30.06S
MASON CITY     CLEAR     51  40  65 SW13      30.07R
CHARLES CITY   CLEAR     45  39  81 S7        30.08R
OELWEIN        CLEAR     45  41  87 S8        30.10F
$$

...ELSEWHERE IN IOWA...


CITY           SKY/WX    TMP DP  RH WIND       PRES   REMARKS
DES MOINES     CLEAR     51  40  65 S9        30.13S
IOWA CITY      CLEAR     49  41  74 S7        30.18S
FORT DODGE     CLEAR     47  40  76 S6        30.09R
MARSHALLTOWN   CLEAR     50  41  71 SW8       30.11R
CEDAR RAPIDS   CLEAR     48  40  73 S8        30.14R
$$

...NORTHERN ILLINOIS...


CITY           SKY/WX    TMP DP  RH WIND       PRES   REMARKS
CHICAGO-OHARE  CLOUDY    50  37  61 SW10      30.19S
CHICAGO-MIDWAY CLOUDY    49  39  68 SW9       30.21S
MOLINE         CLEAR     49  39  68 S7        30.19R
ROCKFORD       CLEAR     48  39  71 S7        30.18F
PEORIA         CLEAR     44  41  89 SW7       30.25S
$$

NOTE: "FAIR" INDICATES FEW OR NO CLOUDS BELOW 12,000 FEET WITH NO
SIGNIFICANT WEATHER AND/OR OBSTRUCTIONS TO VISIBILITY. WIND
SPEEDS ARE IN MILES-PER-HOUR.




USA.gov is the U.S. government's official web portal to all federal, state and local government web resources and services.